STARLINK-36616

Last updated on Thu Mar 05 2026 00:02:08 GMT+0000 (Coordinated Universal Time)

1 67672U 26022AA 26063.42448316 .00389445 00000+0 24849-2 0 9990 2 67672 97.2833 97.1947 0001183 49.7325 310.4043 15.75280254 4729
UTC large
Height (km)
Speed (km/s)
/
Latitude / Longitude
Inclination (degrees)
Orbital Period (minutes)
Azimuth
Elevation
Range (km)
Doppler Factor

Next 0 passes for location: London (51.5072 / 0.1276)

Sorry there are no passes over London.